Vertical_Velocity
-5 -5 5 -4 0 1 4 8 5 -3 -2 4 4 6 1 4 -11 -1 2 2 1 1
2 -2 5 -2 2 8 2 7 -6 2 -0 -9 -11 -7 3 0 -7 -13 -3 1 3 1
7 1 -0 1 2 7 5 1 5 -1 2 5 -3 3 2 -3 1 -0 0 -1 -1 3
0 3 -2 -5 -3 -11 -5 -1 8 9 2 4 4 -2 3 0 -4 4 2 2 1 4
-7 -2 -3 -6 5 20 4 5 -4 -0 4 3 3 -0 -4 -0 2 -1 3 4 -5 4
1 -7 4 -0 1 10 1 -5 1 -3 0 10 2 -1 0 0 2 4 3 -1 -0 -2
2 1 -1 0 2 -1 2 2 -1 -5 1 5 4 2 1 -1 3 2 1 -1 -2 0
2 1 -2 1 2 1 2 3 2 3 4 5 1 -1 -3 4 3 -2 -3 0 1 -0
2 2 3 2 3 2 3 3 2 0 -1 -3 2 -0 3 1 1 -0 0 4 -0 2
-0 -0 -1 -2 -1 1 3 1 1 3 1 2 3 1 -2 -2 1 1 -0 -1 0 -1
1 1 1 2 2 2 0 -1 1 0 0 0 -2 -1 2 -0 1 1 -2 -2 -4 -2
1 1 1 1 0 1 2 3 2 -1 -1 1 2 2 -0 -2 -1 -2 -0 0 -0 0
2 2 2 2 2 2 2 1 1 2 2 -0 -2 1 1 3 4 2 0 -4 -1 -1
1 1 1 1 0 0 0 -0 1 0 0 5 9 6 1 -2 1 0 -1 0 2 3
Height
3085 3089 3091 3094 3095 3097 3099 3104 3104 3106 3108 3111 3111 3110 3109 3107 3105 3107 3108 3108 3107 3106
3081 3084 3086 3089 3090 3091 3093 3094 3096 3097 3099 3102 3103 3104 3103 3100 3099 3099 3101 3102 3101 3100
3078 3080 3083 3085 3087 3087 3088 3089 3092 3092 3094 3096 3096 3096 3094 3092 3095 3095 3094 3095 3095 3095
3076 3078 3079 3081 3082 3082 3082 3083 3084 3085 3088 3089 3088 3089 3090 3088 3088 3089 3088 3088 3089 3088
3072 3073 3073 3074 3075 3075 3077 3078 3080 3081 3083 3084 3083 3082 3083 3082 3082 3082 3083 3081 3082 3080
3068 3068 3068 3070 3070 3070 3073 3074 3075 3076 3076 3076 3075 3075 3076 3076 3076 3076 3076 3075 3074 3072
3063 3063 3064 3065 3065 3066 3068 3068 3069 3070 3069 3069 3070 3068 3070 3070 3072 3069 3069 3068 3066 3063
3057 3058 3059 3060 3060 3060 3061 3062 3062 3063 3063 3063 3064 3063 3065 3065 3064 3062 3061 3058 3055 3053
3052 3053 3053 3054 3055 3055 3056 3056 3056 3056 3057 3059 3058 3058 3058 3057 3055 3053 3051 3050 3048 3046
3047 3047 3048 3048 3048 3048 3049 3050 3050 3051 3051 3052 3052 3051 3050 3048 3047 3046 3044 3042 3039 3037
3041 3041 3041 3041 3042 3042 3043 3043 3044 3045 3045 3046 3045 3044 3043 3041 3039 3036 3034 3032 3029 3027
3036 3036 3036 3036 3036 3036 3037 3038 3038 3038 3039 3039 3037 3036 3033 3031 3029 3027 3024 3021 3019 3017
3030 3029 3029 3029 3029 3030 3030 3031 3031 3031 3030 3029 3027 3025 3023 3021 3019 3017 3014 3012 3010 3006
3022 3022 3022 3022 3023 3023 3023 3023 3022 3021 3019 3019 3017 3015 3013 3010 3008 3006 3004 3003 3001 2997